Location: Cactus School
(34.5700°N, 118.0931°W)
Time: 22:36:03
(UTC-07:00)

Vanguard 2 - Pass Details

Date: 29 April 2024
Orbit: 553 x 2914 km, 32.9° (Epoch: 18 May)

Event Time Altitude Azimuth Distance (km) Brightness Sun altitude
Exits shadow 00:13:48 45° 96° (E) 2,921 10.1 -40.0°
Drops below altitude 10° 00:24:21 10° 81° (E) 5,500 11.8 -40.4°
Sets 00:29:06 0° 80° (E) 6,673 12.4 -40.5°
